Wind_Speed
21 22 27 32 32 31 26 20 9 12 9 2 6 8 15 12 5 7 10 11 11 11 12 14 16 16 18 19 20 22 23 23 13 22 22 23 26 25 25 26 26 25 23
19 26 30 30 30 23 10 3 8 2 5 9 9 10 9 10 10 9 10 12 13 15 17 18 19 21 21 20 20 22 23 22 21 18 21 19 24 26 26 26 25 25 29
21 27 29 28 24 14 5 3 3 4 7 10 11 12 13 13 13 11 12 13 15 18 19 19 19 18 21 23 26 25 24 23 23 22 25 24 24 26 27 29 33 31 33
23 25 21 17 12 8 10 13 12 12 16 15 13 14 11 10 11 13 15 15 15 15 17 21 24 26 27 26 25 25 23 22 21 22 23 24 21 22 24 23 24 26 28
21 16 11 5 4 4 6 10 13 9 9 14 13 10 11 14 15 13 13 16 20 25 27 28 29 28 25 26 25 24 22 20 21 20 19 21 19 17 17 22 24 26 25
13 11 9 10 10 8 8 9 12 15 17 15 11 13 14 16 16 18 18 19 22 25 26 25 27 26 26 25 24 24 26 24 24 21 21 21 23 21 20 21 22 18 9
15 13 12 10 12 11 12 13 13 11 9 11 13 15 16 15 16 19 20 23 24 25 26 27 26 23 22 24 25 26 26 27 28 29 27 26 24 23 23 21 23 23 23
10 9 8 6 7 8 10 10 10 11 13 15 15 15 14 19 22 23 20 21 23 24 26 26 25 26 23 23 25 26 28 29 30 31 32 33 33 30 28 27 27 27 27
8 7 9 10 9 10 12 13 12 13 14 15 12 15 19 23 23 22 20 23 25 26 24 22 23 23 23 24 28 29 29 29 29 29 32 36 35 34 30 26 23 20 13
9 12 10 11 12 13 13 12 12 14 13 12 16 18 19 23 22 21 21 24 23 21 21 21 22 24 24 24 26 25 25 21 20 22 28 31 32 33 37 34 24 20 17
11 17 11 12 13 12 13 13 13 13 13 17 19 18 21 23 22 23 22 21 23 23 21 22 23 20 21 25 23 25 26 26 26 25 23 25 26 26 29 29 32 29 20
15 10 13 13 14 13 12 13 14 13 16 18 20 23 24 22 22 26 21 20 21 25 24 23 21 18 23 23 21 21 23 23 22 20 19 19 20 23 26 27 29 31 32
10 13 14 14 12 9 13 15 14 16 18 20 20 20 23 23 28 26 23 21 25 24 19 19 17 19 20 20 20 20 18 17 16 14 15 19 22 24 23 24 28 28 26
11 13 13 12 12 11 13 14 15 17 20 18 20 19 21 22 25 26 23 25 25 17 18 15 17 19 18 18 22 23 21 19 15 13 13 16 12 15 16 18 16 19 17
10 11 12 13 14 14 13 15 16 15 16 18 20 22 19 19 23 25 24 24 19 17 12 15 19 23 22 21 21 21 23 24 21 19 15 13 10 6 8 10 15 15 13
10 12 13 15 14 12 16 20 14 15 16 16 16 17 20 20 22 22 22 20 15 13 11 13 15 18 18 19 20 20 20 23 23 20 16 14 12 9 6 6 7 10 11
9 10 11 12 12 16 19 19 19 20 16 17 17 16 17 20 19 20 21 16 13 16 14 15 15 16 18 18 18 19 18 23 23 20 17 17 17 15 13 8 10 11 11
9 8 10 10 12 15 17 15 17 18 18 21 19 18 18 18 17 17 19 17 19 19 16 15 16 17 18 18 21 21 23 22 25 23 21 18 15 14 12 12 11 5 2
9 11 9 11 12 15 14 15 15 16 16 18 19 20 21 18 15 15 17 19 15 15 16 17 19 19 20 21 23 25 24 20 24 23 22 20 16 12 11 13 10 8 4
10 10 11 12 12 14 12 15 15 15 15 16 17 17 21 20 19 19 19 18 17 16 18 18 19 21 22 23 24 24 24 25 22 24 22 19 17 15 13 11 12 9 9
12 14 12 10 11 12 13 14 14 14 14 14 14 15 15 15 14 15 16 18 17 17 17 18 18 20 22 23 23 24 24 24 23 23 22 20 17 16 13 12 12 12 10
13 15 11 8 10 11 12 13 13 13 13 13 13 13 13 13 12 13 14 15 16 15 15 15 17 18 19 21 22 22 23 24 24 23 20 18 17 16 14 15 15 14 12
13 10 7 7 10 11 11 11 13 12 12 11 12 11 11 11 11 11 13 14 14 14 15 15 17 18 18 18 20 20 21 21 21 19 18 17 16 17 16 17 17 16 15
12 9 7 8 10 11 11 11 11 11 11 9 10 10 10 10 10 11 12 12 13 13 14 15 16 17 18 18 18 19 19 19 18 17 17 17 17 16 15 16 16 15 14
12 11 10 10 11 12 12 11 11 10 10 8 9 9 9 9 9 9 10 11 13 13 14 15 15 17 18 18 19 18 16 16 17 16 16 16 17 17 17 16 15 14 12
10 11 12 11 12 14 13 12 10 9 9 8 9 9 8 8 7 7 8 10 12 13 13 13 14 14 15 17 18 18 18 17 17 17 16 16 17 18 17 17 17 17 16
Wind_Direction
334 328 325 326 326 321 308 297 250 176 161 193 315 332 334 325 317 293 291 288 292 299 298 297 293 292 286 285 282 276 267 259 259 275 276 278 279 277 277 278 278 280 279
318 323 325 328 328 319 310 240 168 250 339 351 5 349 334 323 320 314 307 305 302 299 298 296 293 294 289 289 284 279 277 271 264 276 278 274 274 276 278 277 277 270 273
318 325 329 331 331 325 338 18 43 23 358 352 351 336 317 306 297 305 307 307 302 298 294 288 288 291 291 290 289 282 277 274 267 269 275 274 269 268 265 265 269 271 271
326 328 333 345 3 54 57 34 29 11 357 341 329 303 299 306 314 313 308 303 296 291 291 291 295 297 295 290 283 277 276 272 270 268 270 272 267 264 260 262 266 265 263
331 337 342 6 2 324 338 335 344 343 312 318 316 317 317 318 322 319 313 307 301 299 298 300 300 299 290 284 281 279 274 266 267 264 261 263 260 252 242 253 259 268 269
327 331 317 325 325 336 318 313 302 302 300 301 307 318 323 322 318 313 310 308 300 296 294 295 296 294 292 288 282 277 273 271 268 262 258 257 260 255 247 243 247 257 272
324 325 316 323 310 324 321 307 301 304 312 318 320 322 320 320 322 316 310 302 301 300 299 297 295 291 289 285 280 278 276 273 267 267 267 263 264 254 248 245 240 244 253
20 18 4 1 322 315 317 326 325 322 323 324 322 321 323 321 322 318 314 309 307 304 303 303 297 295 289 289 288 280 273 269 263 260 255 257 258 257 246 246 245 245 254
332 327 321 325 335 341 336 332 329 325 323 322 323 323 325 324 328 322 321 318 314 310 311 302 297 294 296 294 288 282 279 273 272 265 263 262 257 254 248 243 236 234 247
342 349 340 341 337 335 333 331 325 324 324 328 325 326 328 328 329 328 327 322 313 309 307 298 296 293 298 304 298 293 292 287 280 279 274 262 260 255 252 245 240 233 237
340 325 316 330 337 334 330 330 332 333 333 328 329 330 331 336 332 334 328 322 314 307 304 304 304 309 311 311 306 298 289 290 287 280 276 258 254 251 248 244 242 238 240
307 323 333 333 333 333 338 340 339 334 331 333 334 332 337 339 337 336 328 324 319 315 307 311 315 321 325 324 322 315 310 301 285 274 271 261 252 243 240 239 243 242 242
330 334 334 331 335 339 345 344 337 335 337 337 337 328 329 338 339 342 340 329 323 319 322 324 330 330 333 340 345 338 343 339 314 279 269 269 263 256 249 238 240 246 245
332 335 339 339 339 329 339 344 340 341 338 338 333 328 327 338 336 339 336 335 333 334 332 340 350 354 355 352 353 356 358 353 344 329 322 331 323 267 248 239 227 226 230
333 339 338 332 326 328 333 342 339 341 337 333 333 332 332 337 330 334 337 337 339 339 346 5 6 5 359 354 347 349 358 360 353 347 334 347 352 324 276 265 237 222 218
325 334 339 336 336 336 333 331 338 337 336 336 333 335 333 331 333 340 344 343 351 359 18 10 1 358 355 348 347 349 354 353 352 349 356 351 345 335 296 291 251 249 227
321 330 342 345 347 344 340 337 332 338 344 344 344 343 343 338 343 352 354 356 12 24 22 14 3 356 354 350 350 351 348 351 1 10 10 16 17 23 32 343 274 238 235
322 324 332 340 343 342 339 338 332 333 336 343 349 350 350 349 352 1 6 17 20 24 20 14 0 358 358 356 2 2 5 356 6 13 15 22 26 18 18 21 31 25 17
327 332 322 320 330 337 336 335 335 335 337 338 342 348 355 356 358 9 16 28 17 11 11 15 12 8 5 8 13 16 18 4 5 14 19 23 25 29 23 20 19 28 44
321 326 325 322 327 337 336 336 336 338 335 338 344 350 352 357 6 10 17 20 20 16 17 17 17 19 18 17 17 18 17 17 7 12 19 23 28 34 33 31 32 43 53
314 315 319 326 332 332 329 334 334 332 331 335 344 351 355 360 3 9 12 17 15 14 13 15 17 20 20 19 19 19 20 19 18 15 17 22 29 35 37 45 51 57 75
310 308 298 317 328 333 331 334 333 332 332 333 341 348 354 2 6 10 12 11 13 14 12 13 18 22 22 21 20 19 20 19 17 17 18 23 31 41 46 50 51 53 56
325 315 310 317 323 323 329 332 332 331 331 327 334 341 351 357 1 5 7 11 11 14 18 20 21 23 25 27 28 25 21 19 18 19 22 29 36 43 50 54 52 49 48
322 321 306 320 327 321 323 325 329 327 327 323 330 335 336 345 353 0 2 5 12 16 20 23 27 26 25 27 28 28 25 26 27 27 31 38 43 47 52 55 57 58 58
308 305 297 302 319 322 314 313 319 323 323 319 321 329 329 331 346 357 5 9 10 12 16 19 23 25 27 29 29 27 26 27 29 32 35 40 45 48 50 52 56 60 62
311 309 307 307 307 315 313 299 308 314 315 311 313 317 319 324 329 342 350 356 2 6 8 12 16 19 21 27 28 28 30 32 33 32 31 38 45 47 51 56 57 58 59
Height
798 796 793 789 783 777 774 772 770 771 771 770 770 770 767 766 766 765 767 768 768 768 768 768 767 767 765 765 765 764 763 763 760 755 756 756 754 754 754 755 755 754 753
798 794 790 785 780 774 770 770 772 775 773 773 770 770 769 768 766 766 765 766 765 765 764 762 761 760 759 758 758 757 757 756 755 750 749 749 748 747 747 747 747 746 746
795 791 786 782 777 775 774 774 773 773 772 771 770 770 769 768 766 764 763 763 763 761 759 757 756 755 754 754 752 750 749 748 747 745 740 741 740 740 739 738 737 736 736
790 788 784 781 777 777 775 775 773 772 771 770 770 768 768 766 764 763 761 759 758 756 754 753 751 750 748 746 744 742 741 740 740 738 735 732 733 732 731 730 728 727 725
786 784 783 780 778 777 775 774 775 774 771 769 768 766 765 764 762 760 758 756 753 751 748 747 745 743 741 739 737 735 734 733 732 730 727 725 724 725 724 724 721 720 717
783 783 783 779 778 776 776 774 772 772 769 767 766 764 763 761 759 757 754 751 748 746 743 740 738 736 733 731 729 728 728 726 724 722 719 716 715 716 716 716 715 715 712
782 780 780 779 777 775 774 772 770 769 767 765 764 762 760 758 756 753 750 747 743 741 738 734 731 728 726 724 721 720 718 717 716 714 710 709 707 708 709 708 708 707 705
780 780 780 777 775 773 772 771 770 768 766 763 761 759 758 756 753 749 745 741 738 736 732 728 725 721 719 717 714 710 708 706 704 703 700 698 698 699 698 698 699 698 698
781 780 779 777 775 773 771 770 768 766 764 762 760 758 755 751 748 744 741 737 733 729 726 722 719 716 713 711 707 702 698 695 693 691 690 688 687 688 689 690 689 691 689
783 782 780 778 775 773 771 769 767 765 763 760 758 755 752 748 744 740 737 732 727 724 721 717 713 710 706 703 699 694 689 686 684 682 679 677 677 677 678 680 681 681 683
784 781 779 776 774 772 770 768 765 763 761 758 755 752 749 745 740 737 733 729 725 720 715 711 707 704 701 696 692 688 683 680 676 673 670 668 667 667 668 669 671 673 674
782 780 778 776 773 771 769 766 764 761 759 755 752 748 745 741 738 733 730 726 722 716 711 706 702 699 695 689 685 681 676 672 668 665 663 661 659 658 658 660 661 663 665
781 779 776 774 771 769 767 764 762 759 756 752 749 744 740 737 733 729 725 722 717 711 707 703 699 695 690 686 681 676 671 667 663 660 657 654 652 651 652 653 654 656 658
779 777 775 772 770 768 766 763 760 757 754 751 747 743 738 735 731 726 722 717 712 708 704 701 697 693 689 685 680 675 671 666 662 658 655 651 647 646 647 648 650 651 653
777 775 773 771 768 766 764 762 759 757 754 750 746 743 738 734 730 726 721 716 711 707 703 700 696 692 688 684 680 676 671 666 662 658 654 650 648 646 646 646 646 647 649
774 773 771 768 766 764 762 758 758 755 752 749 746 742 738 735 729 725 719 715 710 706 703 701 698 695 692 687 683 678 673 668 664 659 654 651 648 645 644 644 645 646 646
772 771 769 766 764 762 760 757 753 751 750 747 744 741 738 734 729 724 719 714 710 706 704 702 701 698 694 690 686 681 676 672 667 661 657 653 649 646 644 642 642 642 642
770 769 767 764 763 761 758 756 754 750 746 744 742 740 736 732 728 724 720 714 710 708 707 705 703 700 696 693 688 683 678 674 669 664 660 655 652 650 647 645 643 641 641
768 766 764 762 761 759 757 755 752 750 747 744 741 738 735 732 729 725 722 718 716 713 710 708 705 702 698 694 690 686 682 678 674 668 663 659 655 652 650 648 645 644 643
765 764 762 760 758 757 756 754 751 749 746 744 741 738 734 731 728 726 723 721 718 716 713 710 707 704 700 696 692 688 684 680 676 672 667 662 658 655 652 650 648 646 645
763 761 759 758 757 755 754 752 750 748 746 744 741 739 737 734 731 728 726 723 720 718 715 712 709 705 702 698 694 691 687 683 679 675 671 666 662 658 655 653 651 649 648
759 757 756 755 754 753 752 751 749 747 745 743 741 739 737 735 732 730 727 725 722 720 717 714 710 707 704 701 697 693 690 686 682 678 674 671 666 662 659 657 655 653 652
757 755 754 754 753 752 750 749 747 746 744 743 741 739 738 736 734 731 729 726 724 721 718 715 712 709 706 703 700 696 693 689 686 682 678 674 671 667 664 661 660 658 656
756 754 753 752 751 749 748 747 746 745 743 742 741 739 737 736 734 732 730 728 725 723 720 717 714 711 708 705 702 699 696 693 690 686 683 679 675 672 669 667 665 664 662
754 752 751 750 749 747 746 745 744 743 742 741 740 739 737 736 735 733 731 729 727 724 722 719 716 713 710 707 704 701 698 696 693 690 687 683 680 677 674 672 669 668 667
752 751 749 748 747 745 744 743 742 741 740 739 739 738 737 736 734 733 732 730 728 726 723 721 718 716 713 710 707 704 701 698 695 693 690 687 683 681 678 676 674 672 671